Butler, GA

6:51 AM EDT on September 20, 2019 (GMT -0400)
Butler

Weather History for K6A1 - August, 2019

Change the Weather History Date:

Wednesday, August 21, 2019

  Actual Average (KMCN) Record (KMCN)
Temperature  
Mean Temperature 82 °F -  
Max Temperature 94 °F 91 °F 105 °F (1980)
Min Temperature 70 °F 70 °F 57 °F (1943)
Cooling Degree Days 17    
Growing Degree Days 32 (Base 50)    
Moisture  
Dew Point 68 °F    
Average Humidity 71    
Maximum Humidity 99    
Minimum Humidity 31    
Precipitation  
Precipitation 0.00 in - - ()
Sea Level Pressure  
Sea Level Pressure 30.11 in    
Wind  
Wind Speed 3 mph ()    
Max Wind Speed 13 mph    
Max Gust Speed 21 mph    
Visibility 9.6 miles    
Events      
Averages and records for this station are not official NWS values.
T = Trace of Precipitation, MM = Missing Value Source: Averaged Metar Reports

Daily Weather History Graph

Daily Weather History Graph

Search for Another Location

Airport or City:

Astronomy

Aug. 21, 2019 Rise Set
Actual Time 7:04 AM EDT 8:15 PM EDT
Civil Twilight 6:38 AM EDT 8:40 PM EDT
Nautical Twilight 6:08 AM EDT 9:11 PM EDT
Astronomical Twilight 5:36 AM EDT 9:42 PM EDT
Moon 11:51 PM EDT (8/21) 12:21 PM EDT (8/21)
Length of Visible Light 14h 01m
Length of Day
13h 10m
Waning Gibbous, 69% of the Moon is Illuminated
Aug 21
Waning Gibbous
Aug 23
Last Quarter
Aug 30
New
Sep 5
First Quarter
Sep 14
Full

Hourly Weather History & Observations

Time (EDT) Temp. Heat Index Dew Point Humidity Pressure Visibility Wind Dir Wind Speed Gust Speed Precip Events Conditions
12:15 AM 72.9 °F - 71.8 °F 96% 30.15 in 10.0 mi WSW 3.5 mph - N/A   Unknown
12:35 AM 72.7 °F - 71.8 °F 97% 30.15 in 10.0 mi WSW 3.5 mph - N/A   Unknown
1:15 AM 72.5 °F - 71.6 °F 97% 30.14 in 10.0 mi SW 3.5 mph - N/A   Unknown
1:35 AM 72.9 °F - 71.6 °F 96% 30.13 in 10.0 mi SSW 3.5 mph - N/A   Unknown
1:55 AM 72.5 °F - 71.4 °F 96% 30.14 in 10.0 mi West 3.5 mph - N/A   Unknown
2:15 AM 72.3 °F - 71.4 °F 97% 30.13 in 10.0 mi SSW 3.5 mph - N/A   Unknown
2:35 AM 72.3 °F - 71.2 °F 96% 30.12 in 10.0 mi SW 3.5 mph - N/A   Unknown
2:55 AM 72.5 °F - 71.6 °F 97% 30.12 in 10.0 mi SW 3.5 mph - N/A   Unknown
3:15 AM 72.3 °F - 71.4 °F 97% 30.12 in 10.0 mi SSW 3.5 mph - N/A   Unknown
3:35 AM 72.0 °F - 71.1 °F 97% 30.12 in 10.0 mi Calm Calm - N/A   Unknown
3:55 AM 71.8 °F - 71.1 °F 98% 30.11 in 10.0 mi Calm Calm - N/A   Unknown
4:15 AM 71.6 °F - 70.9 °F 98% 30.11 in 10.0 mi Calm Calm - N/A   Unknown
4:35 AM 71.1 °F - 70.3 °F 98% 30.10 in 7.0 mi Calm Calm - N/A   Unknown
4:55 AM 70.9 °F - 70.3 °F 98% 30.10 in 7.0 mi Calm Calm - N/A   Unknown
5:15 AM 71.1 °F - 70.7 °F 99% 30.10 in 10.0 mi SW 3.5 mph - N/A   Unknown
5:35 AM 71.6 °F - 71.1 °F 98% 30.10 in 10.0 mi Calm Calm - N/A   Unknown
5:55 AM 71.6 °F - 70.9 °F 98% 30.10 in 10.0 mi Calm Calm - N/A   Unknown
6:15 AM 71.6 °F - 71.1 °F 98% 30.10 in 10.0 mi South 5.8 mph - N/A   Unknown
6:35 AM 71.6 °F - 71.1 °F 98% 30.11 in 7.0 mi Calm Calm - N/A   Unknown
6:55 AM 71.1 °F - 70.7 °F 99% 30.12 in 7.0 mi Calm Calm - N/A   Unknown
7:15 AM 71.1 °F - 70.5 °F 98% 30.12 in 5.0 mi Calm Calm - N/A   Mist
7:35 AM 70.7 °F - 70.0 °F 98% 30.13 in 5.0 mi Calm Calm - N/A   Mist
7:55 AM 71.6 °F - 70.9 °F 98% 30.13 in 7.0 mi Calm Calm - N/A   Unknown
8:15 AM 73.2 °F - 72.5 °F 98% 30.13 in 10.0 mi Calm Calm - N/A   Unknown
8:35 AM 74.7 °F - 73.2 °F 95% 30.14 in 10.0 mi SSW 3.5 mph - N/A   Unknown
8:55 AM 76.1 °F - 72.9 °F 90% 30.14 in 10.0 mi Calm Calm - N/A   Unknown
9:15 AM 77.0 °F - 72.3 °F 85% 30.14 in 10.0 mi Calm Calm - N/A   Unknown
9:35 AM 79.3 °F - 72.1 °F 79% 30.14 in 10.0 mi WNW 4.6 mph - N/A   Unknown
9:55 AM 80.2 °F 84.2 °F 72.1 °F 76% 30.14 in 10.0 mi Calm Calm - N/A   Unknown
10:15 AM 81.9 °F 86.6 °F 72.0 °F 72% 30.13 in 10.0 mi Calm Calm - N/A   Unknown
10:35 AM 83.3 °F 87.1 °F 69.4 °F 63% 30.14 in 10.0 mi West 3.5 mph - N/A   Unknown
11:15 AM 85.8 °F 90.4 °F 70.0 °F 59% 30.15 in 10.0 mi NNW 5.8 mph - N/A   Unknown
11:35 AM 86.0 °F 89.7 °F 68.9 °F 56% 30.15 in 10.0 mi WSW 8.1 mph - N/A   Unknown
11:55 AM 87.4 °F 90.1 °F 66.6 °F 50% 30.15 in 10.0 mi WSW 5.8 mph - N/A   Unknown
12:15 PM 88.0 °F 90.3 °F 66.0 °F 48% 30.15 in 10.0 mi SW 4.6 mph - N/A   Unknown
12:35 PM 88.5 °F 90.8 °F 66.0 °F 47% 30.15 in 10.0 mi WSW 5.8 mph - N/A   Unknown
12:55 PM 89.6 °F 92.2 °F 66.2 °F 46% 30.14 in 10.0 mi SW 6.9 mph - N/A   Unknown
1:15 PM 89.8 °F 92.1 °F 65.7 °F 45% 30.14 in 10.0 mi West 4.6 mph - N/A   Unknown
1:35 PM 89.6 °F 91.1 °F 64.4 °F 43% 30.13 in 10.0 mi WSW 6.9 mph - N/A   Unknown
1:55 PM 90.9 °F 92.3 °F 64.0 °F 41% 30.13 in 10.0 mi SW 6.9 mph - N/A   Unknown
2:15 PM 91.9 °F 93.3 °F 63.5 °F 39% 30.12 in 10.0 mi SW 3.5 mph - N/A   Unknown
2:35 PM 91.9 °F 92.9 °F 62.8 °F 38% 30.11 in 10.0 mi SW 8.1 mph 16.1 mph N/A   Unknown
2:55 PM 92.5 °F 93.0 °F 61.7 °F 36% 30.10 in 10.0 mi SW 4.6 mph - N/A   Unknown
3:15 PM 92.8 °F 94.3 °F 63.5 °F 38% 30.09 in 10.0 mi WSW 10.4 mph - N/A   Unknown
3:35 PM 92.7 °F 93.2 °F 61.7 °F 36% 30.08 in 10.0 mi WSW 5.8 mph - N/A   Unknown
3:55 PM 93.2 °F 93.3 °F 61.2 °F 34% 30.07 in 10.0 mi West 8.1 mph - N/A   Unknown
4:15 PM 94.3 °F 94.5 °F 60.8 °F 33% 30.06 in 10.0 mi WSW 8.1 mph - N/A   Unknown
4:35 PM 93.6 °F 92.7 °F 59.0 °F 31% 30.06 in 10.0 mi SSW 9.2 mph - N/A   Unknown
4:55 PM 93.7 °F 94.5 °F 62.4 °F 35% 30.06 in 10.0 mi SW 8.1 mph - N/A   Unknown
5:15 PM 93.2 °F 95.3 °F 64.6 °F 39% 30.06 in 10.0 mi SW 6.9 mph - N/A   Unknown
5:35 PM 92.8 °F 94.3 °F 63.5 °F 38% 30.06 in 10.0 mi WSW 5.8 mph - N/A   Unknown
5:55 PM 93.2 °F 94.5 °F 63.7 °F 37% 30.06 in 10.0 mi SW 4.6 mph - N/A   Unknown
6:15 PM 92.5 °F 93.7 °F 63.3 °F 38% 30.06 in 10.0 mi SW 6.9 mph - N/A   Unknown
6:35 PM 92.1 °F 93.6 °F 63.9 °F 39% 30.06 in 10.0 mi SSW 6.9 mph - N/A   Unknown
7:35 PM 83.8 °F 88.1 °F 69.8 °F 63% 30.06 in 10.0 mi SSW 12.7 mph 20.7 mph N/A   Unknown
7:55 PM 81.9 °F 85.6 °F 70.0 °F 67% 30.07 in 10.0 mi South 9.2 mph - N/A   Unknown
8:15 PM 81.0 °F 83.8 °F 68.4 °F 65% 30.07 in 10.0 mi SSW 6.9 mph - N/A   Unknown
8:35 PM 79.7 °F - 68.4 °F 68% 30.07 in 10.0 mi SSW 6.9 mph - N/A   Unknown
8:55 PM 79.2 °F - 67.8 °F 68% 30.08 in 10.0 mi SSW 6.9 mph - N/A   Unknown
9:15 PM 78.6 °F - 67.8 °F 69% 30.08 in 10.0 mi SSW 5.8 mph - N/A   Unknown
9:35 PM 78.8 °F - 68.7 °F 71% 30.09 in 10.0 mi SSW 6.9 mph - N/A   Unknown
9:55 PM 78.8 °F - 69.4 °F 73% 30.09 in 10.0 mi SSW 8.1 mph - N/A   Unknown
10:15 PM 79.0 °F - 69.4 °F 72% 30.10 in 10.0 mi SSW 6.9 mph - N/A   Unknown
10:35 PM 78.1 °F - 69.8 °F 76% 30.10 in 10.0 mi SW 5.8 mph - N/A   Unknown
10:55 PM 77.4 °F - 70.2 °F 78% 30.10 in 10.0 mi SW 5.8 mph - N/A   Unknown
11:35 PM 76.3 °F - 70.9 °F 83% 30.10 in 10.0 mi SW 6.9 mph - N/A   Unknown
11:55 PM 76.1 °F - 71.1 °F 84% 30.11 in 10.0 mi SW 4.6 mph - N/A   Unknown